Preview of NWS' New Version of Forecast
This preview is not operational and should not be used for support decisions.

Regional Weather Roundup (RWR)

Issued by National Weather Service (NWS)

                            
000
ASUS45 KBOU 181410
RWRCO 

WEATHER ROUNDUP FOR COLORADO
NATIONAL WEATHER SERVICE DENVER/BOULDER CO
800 AM MDT THU APR 18 2019

NOTE: "FAIR" INDICATES FEW OR NO CLOUDS BELOW 12000 FEET WITH NO
SIGNIFICANT WEATHER AND/OR OBSTRUCTIONS TO VISIBILITY.

COZ001>005-013-030-031-181500-
...NORTHWEST COLORADO...
  
CITY           SKY/WX    TMP DP  RH WIND       PRES   REMARKS
CRAIG          CLOUDY    41  31  67 NW3       30.31R                  
HAYDEN         CLOUDY    41  29  62 W9        30.31R                  
MEEKER         FAIR      36  30  79 CALM      30.31R                  
RANGELY        FAIR      36  30  79 CALM      30.31R                  
RABBIT EARS PA NOT AVBL                                               
STEAMBOAT SPGS CLOUDY    37  31  77 W12       30.28R                  
WALDEN         FAIR      37  21  52 NW24      30.26R                  
$$

COZ006>008-011-181500-
...WEST CENTRAL VALLEYS...
  
CITY           SKY/WX    TMP DP  RH WIND       PRES   REMARKS
GRAND JUNCTION FAIR      43  30  60 CALM      30.29R                  
MONTROSE       FAIR      40  26  57 S8        30.35R                  
EAGLE          CLOUDY    38  27  64 E5        30.31R                  
RIFLE          FAIR      39  30  70 CALM      30.31R                  
DELTA          FAIR      43  28  55 E6        30.32R                  
NUCLA          NOT AVBL                                               
$$

COZ017>023-064>068-181500-
...SOUTHWEST COLORADO...
  
CITY           SKY/WX    TMP DP  RH WIND       PRES   REMARKS
DURANGO        FAIR      38  21  50 E5        30.21R                  
CORTEZ         FAIR      46  30  53 CALM      30.24R                  
PAGOSA SPRINGS NOT AVBL                                               
TELLURIDE      FAIR      32  23  69 CALM      30.37R                  
WOLF CREEK PAS FAIR      23  10  58 N9G18     30.39R WCI  13          
$$

COZ009-010-012-014-032>034-037-058>063-181500-
...CENTRAL COLORADO...
  
CITY           SKY/WX    TMP DP  RH WIND       PRES   REMARKS
ASPEN          CLOUDY    37  25  61 CALM      30.31R                  
BUENA VISTA    FAIR      41  18  39 N8        30.24R                  
COPPER MTN     CLOUDY    25  21  86 W24G39    30.29R WCI   9          
BERTHOUD PASS  CLOUDY    18   7  62 NW41      30.20R WCI  -5          
COTTONWOOD PAS FAIR      34  14  44 NW12G23   30.28R WCI  25          
GUNNISON       FAIR      37  23  56 SW8       30.31R                  
GRANBY         CLOUDY    34  28  79 W16G24    30.26R WCI  23          
KREMMLING      CLOUDY    37  28  70 NW3       30.29R                  
LEADVILLE      FLURRIES  26  21  81 NW12      30.28R WCI  16          
MONARCH PASS   PTSUNNY   19  18  93 SW16      30.41R WCI   5          
SALIDA         FAIR      37  21  52 CALM      30.32R                  
SUNLIGHT       CLOUDY    25  21  86 NW7       30.40R WCI  17          
WILKERSON PASS FAIR      27  14  59 N13G32    30.28R WCI  16          
$$

COZ069>075-181500-
...SAN LUIS VALLEY/SANGRE DE CRISTO MOUNTAINS...
  
CITY           SKY/WX    TMP DP  RH WIND       PRES   REMARKS
ALAMOSA        FAIR      43  17  35 N14       30.23R                  
DEL NORTE      FAIR      42  16  34 SW7       30.26R                  
LA VETA PASS   NOT AVBL                                               
SAGUACHE       FAIR      41  19  42 NW20G26   30.25R                  
$$

COZ035-036-038>040-181500-
...NORTHERN COLORADO FRONT RANGE...
  
CITY           SKY/WX    TMP DP  RH WIND       PRES   REMARKS
DENVER INTL AP PTSUNNY   41  38  89 E3        30.17R                  
AURORA         PTSUNNY   41  36  83 S6        30.16R                  
FRONT RANGE AP PTSUNNY   45  37  76 E6        30.19R                  
ERIE MUNI ARPT PTSUNNY   41  37  85 NE5       30.23R                  
BOULDER MUN AP CLOUDY    39  36  87 N3        30.17R                  
CENTENNIAL     PTSUNNY   41  35  79 SE6       30.16R                  
BROOMFIELD     PTSUNNY   41  37  87 S5        30.16R                  
FORT COLLINS   PTSUNNY   41  36  82 E8        30.18R                  
LONGMONT       CLOUDY    42  37  84 CALM      30.20R                  
$$

COZ041-046-047-076>085-087-088-181500-
...PIKES PEAK/PALMER DIVIDE AND SOUTHERN FOOTHILLS...
  
CITY           SKY/WX    TMP DP  RH WIND       PRES   REMARKS
COLO. SPRINGS  FAIR      42  34  73 SE5       30.19R                  
A. F. ACADEMY  PTSUNNY   38  32  79 CALM      30.16R                  
SCHRIEVER AFB  NOT AVBL                                               
CHEYENNE MTN   NOT AVBL                                               
ELLICOTT         N/A    N/A N/A N/A W10       30.18R                  
FALCON         FAIR      38  32  81 SW12      30.19R                  
FORT CARSON    FAIR      42  37  81 SE6       30.19R                  
LIMON          CLOUDY    40  36  86 N16G22    30.17R                  
MONUMENT HILL  CLOUDY    36  32  87 W5        30.19R                  
CANON CITY     NOT AVBL                                               
WALSENBURG     NOT AVBL                                               
TRINIDAD       FAIR      43  38  82 W9        30.21R                  
$$

COZ042>045-048>051-090-091-181500-
...NORTHEAST COLORADO...
  
CITY           SKY/WX    TMP DP  RH WIND       PRES   REMARKS
GREELEY ARPT   PTSUNNY   43  34  70 NE14      30.20R                  
AKRON          PTSUNNY   44  34  67 NW29G36   30.14R                  
BURLINGTON     CLOUDY    43  38  82 NW22      30.13R                  
WRAY           PTSUNNY   45  36  70 NW15      30.10R                  
YUMA           NOT AVBL                                               
STERLING       PTSUNNY   45  36  70 N28G36    30.13R                  
HOLYOKE        FAIR      48  36  61 NW21G28   30.09R                  
FORT MORGAN      N/A     40  33  77 N22       30.18R                  
$$

COZ086-089-092>099-181500-
...SOUTHEAST COLORADO...
  
CITY           SKY/WX    TMP DP  RH WIND       PRES   REMARKS
PUEBLO         FAIR      47  38  71 S8        30.18R                  
LA JUNTA       CLOUDY    49  35  58 W15       30.16R                  
LAMAR          FAIR      50  36  58 W15G21    30.11R                  
SPRINGFIELD      N/A     48  36  63 NW17G26   30.13R                  
$$